Location: Agadir Irigdalene
(31.2522°N, 8.7797°W)
Time: 05:26:39
(UTC+00:00)

Cosmos 2263 - Pass Details

Date: 01 December 2020
Orbit: 833 x 864 km, 70.9° (Epoch: 25 January)

Event Time Altitude Azimuth Distance (km) Brightness Sun altitude
Rises 18:59:06 0° 344° (NNW) 3,381 7.4 -18.3°
Reaches altitude 10° 19:01:35 10° 348° (NNW) 2,444 6.6 -18.8°
Maximum altitude 19:07:06 60° 68° (ENE) 950 4.1 -19.9°
Drops below altitude 10° 19:12:37 10° 148° (SSE) 2,438 6.4 -21.1°
Sets 19:15:05 0° 152° (SSE) 3,372 7.2 -21.6°
